Weather History for Wright-Patt AFB, OH

Change the Weather History Date:

Saturday, June 15, 2013

  Actual Average Record
Temperature  
Mean Temperature 68 °F -  
Max Temperature 81 °F 77 °F 89 °F (2001)
Min Temperature 56 °F 58 °F 48 °F (1997)
Cooling Degree Days 4    
Growing Degree Days 18 (Base 50)    
Moisture  
Dew Point 57 °F    
Average Humidity 66    
Maximum Humidity 94    
Minimum Humidity 45    
Precipitation  
Precipitation 0.00 in - - ()
Sea Level Pressure  
Sea Level Pressure 30.05 in    
Wind  
Wind Speed 3 mph (SSW)    
Max Wind Speed 13 mph    
Max Gust Speed -    
Visibility 10 miles    
Events Fog    
Averages and records for this station are not official NWS values.
T = Trace of Precipitation, MM = Missing Value Source: NWS Daily Summary

Daily Weather History Graph

Daily Weather History Graph

Search for Another Location

Airport:

Trip Planner

Search our weather history database for the weather conditions in past years. The results will help you decide how hot, cold, wet, or windy it might be!

Date:

Astronomy

Jun. 15, 2013 Rise Set
Actual Time 6:07 AM EDT 9:06 PM EDT
Civil Twilight 5:34 AM EDT 9:39 PM EDT
Nautical Twilight 4:53 AM EDT 10:20 PM EDT
Astronomical Twilight 4:05 AM EDT 11:08 PM EDT
Moon 12:40 PM EDT (6/15) 12:41 AM EDT (6/15)
Length of Visible Light 16h 04m
Length of Day
14h 58m
Waxing Crescent, 39% of the Moon is Illuminated
Jun 15
Waxing Crescent
Jun 16
First Quarter
Jun 23
Full
Jun 30
Last Quarter
Jul 8
New

Hourly Weather History & Observations

Time (EDT) Temp. Heat Index Dew Point Humidity Pressure Visibility Wind Dir Wind Speed Gust Speed Precip Events Conditions
12:58 AM 63.5 °F - 55.9 °F 76% 30.07 in 10.0 mi West 2.3 mph - N/A   Clear
1:58 AM 60.8 °F - 55.4 °F 82% 30.06 in 10.0 mi Calm Calm - N/A   Clear
2:58 AM 61.0 °F - 55.0 °F 81% 30.07 in 10.0 mi Calm Calm - N/A   Clear
3:58 AM 58.3 °F - 54.7 °F 88% 30.10 in 10.0 mi Calm Calm - N/A   Clear
4:58 AM 57.2 °F - 55.4 °F 94% 30.09 in 10.0 mi Calm Calm - N/A   Clear
5:58 AM 56.7 °F - 54.5 °F 92% 30.10 in 10.0 mi Calm Calm - N/A Fog Shallow Fog
6:58 AM 56.8 °F - 54.0 °F 90% 30.12 in 10.0 mi Calm Calm - N/A Fog Shallow Fog
7:58 AM 59.7 °F - 55.9 °F 87% 30.13 in 10.0 mi Calm Calm - N/A   Mostly Cloudy
8:58 AM 66.2 °F - 57.2 °F 73% 30.14 in 10.0 mi Variable 2.3 mph - N/A   Mostly Cloudy
9:58 AM 69.3 °F - 57.9 °F 67% 30.14 in 10.0 mi Variable 1.2 mph - N/A   Mostly Cloudy
10:58 AM 73.8 °F - 57.4 °F 56% 30.11 in 10.0 mi WSW 4.6 mph - N/A   Mostly Cloudy
11:58 AM 76.1 °F - 56.7 °F 51% 30.10 in 10.0 mi SSW 6.9 mph - N/A   Mostly Cloudy
12:59 PM 78.1 °F - 56.7 °F 48% 29.88 in 10.0 mi SE 6.9 mph - N/A   Mostly Cloudy
1:58 PM 79.2 °F - 57.7 °F 48% 30.05 in 10.0 mi SSE 11.5 mph - N/A   Scattered Clouds
2:58 PM 78.8 °F - 56.7 °F 46% 30.05 in 10.0 mi South 12.7 mph - N/A   Scattered Clouds
3:58 PM 79.5 °F - 58.1 °F 48% 30.05 in 10.0 mi South 10.4 mph - N/A   Mostly Cloudy
4:58 PM 81.5 °F 81.6 °F 58.5 °F 45% 30.04 in 10.0 mi SW 5.8 mph - N/A   Mostly Cloudy
5:58 PM 79.7 °F - 58.6 °F 48% 30.03 in 10.0 mi SSW 5.8 mph - N/A   Mostly Cloudy
6:58 PM 78.3 °F - 59.5 °F 52% 30.01 in 10.0 mi SSW 6.9 mph - N/A   Mostly Cloudy
7:58 PM 77.7 °F - 59.7 °F 54% 29.98 in 10.0 mi SSE 8.1 mph - N/A   Mostly Cloudy
8:58 PM 76.6 °F - 60.1 °F 56% 29.97 in 10.0 mi SSE 5.8 mph - N/A   Mostly Cloudy
9:58 PM 74.5 °F - 60.8 °F 62% 29.98 in 10.0 mi South 2.3 mph - N/A   Mostly Cloudy
10:58 PM 73.0 °F - 61.5 °F 67% 30.00 in 10.0 mi SSW 3.5 mph - N/A   Overcast
11:58 PM 71.1 °F - 61.0 °F 70% 29.99 in 10.0 mi SW 4.6 mph - N/A   Mostly Cloudy